• In Hungary
  • List of Countries
  • For 7 days
  • Water Temperature
  • Satellite Maps
  • Weather Map
  • News
  • Weather Widgets
  • user-avatar
    Login

    Hourly Weather Ogrodzieniec

    Today, 18 February, Sunday

    Time Temperature Precipitation Wind Pressure Humidity
    00:00 0°C° 0 mm 1 mps 730 mmHg 87%
    01:00 0°C° 0 mm 1 mps 730 mmHg 88%
    02:00 0°C° 0 mm 1 mps 730 mmHg 90%
    03:00 0°C° 0 mm 1 mps 730 mmHg 91%
    04:00 -3°C° 0 mm 2 mps 730 mmHg 93%
    05:00 -3°C° 0 mm 2 mps 731 mmHg 92%
    06:00 -3°C° 0 mm 2 mps 731 mmHg 92%
    07:00 -3°C° 0 mm 2 mps 731 mmHg 92%
    08:00 -2°C° 0 mm 3 mps 732 mmHg 86%
    09:00 -2°C° 0 mm 3 mps 732 mmHg 81%
    10:00 -1°C° 0 mm 3 mps 732 mmHg 75%
    11:00 -1°C° 0 mm 3 mps 732 mmHg 72%
    12:00 -1°C° 0 mm 3 mps 733 mmHg 68%
    13:00 -1°C° 0 mm 3 mps 733 mmHg 65%
    14:00 -1°C° 0 mm 3 mps 733 mmHg 66%
    15:00 -1°C° 0 mm 3 mps 733 mmHg 67%
    16:00 -1°C° 0 mm 2 mps 733 mmHg 69%
    17:00 -2°C° 0 mm 2 mps 733 mmHg 71%
    18:00 -2°C° 0 mm 2 mps 733 mmHg 74%
    19:00 -1°C° 0 mm 1 mps 734 mmHg 76%
    20:00 -1°C° 0 mm 1 mps 734 mmHg 77%
    21:00 -1°C° 0 mm 1 mps 734 mmHg 78%
    22:00 -2°C° 0 mm 1 mps 734 mmHg 79%
    23:00 -2°C° 0 mm 1 mps 734 mmHg 79%

    Tomorrow, 19 February, Monday

    Time Temperature Precipitation Wind Pressure Humidity
    00:00 -2°C° 0 mm 1 mps 734 mmHg 80%
    01:00 -2°C° 0 mm 1 mps 733 mmHg 80%
    02:00 -2°C° 0 mm 1 mps 733 mmHg 80%
    03:00 -2°C° 0 mm 1 mps 733 mmHg 81%
    04:00 -2°C° 0 mm 1 mps 732 mmHg 81%
    05:00 -3°C° 0 mm 1 mps 732 mmHg 81%
    06:00 -3°C° 0 mm 1 mps 732 mmHg 80%
    07:00 -5°C° 0 mm 2 mps 732 mmHg 80%
    08:00 -4°C° 0 mm 2 mps 732 mmHg 75%
    09:00 -3°C° 0 mm 2 mps 732 mmHg 69%
    10:00 -4°C° 0 mm 3 mps 732 mmHg 64%
    11:00 -2°C° 0 mm 3 mps 732 mmHg 62%
    12:00 -1°C° 0 mm 3 mps 731 mmHg 59%
    13:00 -1°C° 0 mm 3 mps 731 mmHg 57%
    14:00 -1°C° 0 mm 3 mps 731 mmHg 60%
    15:00 -1°C° 0 mm 3 mps 730 mmHg 62%
    16:00 -1°C° 0 mm 3 mps 730 mmHg 65%
    17:00 -2°C° 0 mm 3 mps 730 mmHg 68%
    18:00 -4°C° 0 mm 3 mps 730 mmHg 72%
    19:00 -5°C° 0 mm 3 mps 730 mmHg 76%
    20:00 -5°C° 0 mm 3 mps 729 mmHg 76%
    21:00 -5°C° 0 mm 3 mps 729 mmHg 77%
    22:00 -5°C° 0 mm 3 mps 729 mmHg 77%
    23:00 -5°C° 0 mm 3 mps 729 mmHg 78%

    Day after tomorrow, 20 February, Tuesday

    Time Temperature Precipitation Wind Pressure Humidity
    00:00 -4°C° 0 mm 2 mps 729 mmHg 78%
    01:00 -4°C° 0 mm 2 mps 729 mmHg 79%
    02:00 -4°C° 0 mm 2 mps 728 mmHg 79%
    03:00 -4°C° 0 mm 2 mps 728 mmHg 80%
    04:00 -5°C° 0 mm 2 mps 728 mmHg 80%
    05:00 -5°C° 0 mm 2 mps 728 mmHg 81%
    06:00 -5°C° 0 mm 2 mps 727 mmHg 81%
    07:00 -5°C° 0 mm 2 mps 727 mmHg 82%
    08:00 -4°C° 0 mm 2 mps 727 mmHg 78%
    09:00 -5°C° 0 mm 3 mps 727 mmHg 73%
    10:00 -4°C° 0 mm 3 mps 727 mmHg 69%
    11:00 -2°C° 0 mm 3 mps 727 mmHg 66%
    12:00 -1°C° 0 mm 3 mps 727 mmHg 62%
    13:00 -1°C° 0 mm 3 mps 727 mmHg 58%
    14:00 -1°C° 0 mm 3 mps 727 mmHg 60%
    15:00 -1°C° 0 mm 3 mps 726 mmHg 61%
    16:00 -1°C° 0 mm 3 mps 726 mmHg 62%
    17:00 -2°C° 0 mm 3 mps 726 mmHg 65%
    18:00 -2°C° 0 mm 3 mps 726 mmHg 67%
    19:00 -4°C° 0 mm 3 mps 726 mmHg 69%
    20:00 -4°C° 0 mm 3 mps 727 mmHg 71%
    21:00 -4°C° 0 mm 3 mps 727 mmHg 72%
    22:00 -4°C° 0 mm 3 mps 727 mmHg 73%
    23:00 -5°C° 0 mm 3 mps 727 mmHg 75%

    21 February, Wednesday

    Time Temperature Precipitation Wind Pressure Humidity
    00:00 -5°C° 0 mm 3 mps 727 mmHg 77%
    01:00 -5°C° 0 mm 3 mps 727 mmHg 79%
    02:00 -5°C° 0 mm 3 mps 727 mmHg 80%
    03:00 -5°C° 0 mm 3 mps 726 mmHg 81%
    04:00 -5°C° 0 mm 3 mps 726 mmHg 82%
    05:00 -5°C° 0 mm 3 mps 726 mmHg 83%
    06:00 -4°C° 0 mm 2 mps 727 mmHg 84%
    07:00 -5°C° 0 mm 2 mps 727 mmHg 84%
    08:00 -4°C° 0 mm 2 mps 727 mmHg 81%
    09:00 -5°C° 0 mm 3 mps 727 mmHg 78%
    10:00 -4°C° 0 mm 3 mps 727 mmHg 75%
    11:00 -2°C° 0 mm 3 mps 727 mmHg 71%
    12:00 -2°C° 0 mm 3 mps 727 mmHg 68%
    13:00 -1°C° 0 mm 3 mps 727 mmHg 64%
    14:00 -1°C° 0 mm 3 mps 727 mmHg 65%
    15:00 -1°C° 0 mm 3 mps 726 mmHg 66%
    16:00 -1°C° 0 mm 3 mps 726 mmHg 67%
    17:00 -2°C° 0 mm 3 mps 727 mmHg 69%
    18:00 -4°C° 0 mm 3 mps 727 mmHg 72%
    19:00 -4°C° 0 mm 3 mps 727 mmHg 75%
    20:00 -4°C° 0 mm 3 mps 727 mmHg 75%
    21:00 -4°C° 0 mm 3 mps 727 mmHg 76%
    22:00 -4°C° 0 mm 3 mps 727 mmHg 76%
    23:00 -5°C° 0 mm 3 mps 727 mmHg 77%

    22 February, Thursday

    Time Temperature Precipitation Wind Pressure Humidity
    00:00 -5°C° 0 mm 3 mps 727 mmHg 77%
    01:00 -5°C° 0 mm 3 mps 727 mmHg 77%
    02:00 -5°C° 0 mm 3 mps 727 mmHg 77%
    03:00 -5°C° 0 mm 4 mps 727 mmHg 76%
    04:00 -5°C° 0 mm 4 mps 726 mmHg 75%
    05:00 -5°C° 0 mm 4 mps 726 mmHg 76%
    06:00 -5°C° 0 mm 4 mps 726 mmHg 78%
    07:00 -5°C° 0 mm 4 mps 726 mmHg 79%
    08:00 -5°C° 0 mm 4 mps 726 mmHg 77%
    09:00 -5°C° 0 mm 5 mps 726 mmHg 75%
    10:00 -5°C° 0 mm 5 mps 726 mmHg 73%
    11:00 -4°C° 0 mm 5 mps 725 mmHg 72%
    12:00 -4°C° 0 mm 5 mps 725 mmHg 70%
    13:00 -4°C° 0 mm 5 mps 725 mmHg 69%
    14:00 -4°C° 0 mm 5 mps 725 mmHg 70%
    15:00 -4°C° 0 mm 5 mps 724 mmHg 71%
    16:00 -4°C° 0 mm 5 mps 724 mmHg 72%
    17:00 -4°C° 0 mm 5 mps 724 mmHg 74%
    18:00 -5°C° 0 mm 5 mps 724 mmHg 76%
    19:00 -5°C° 0 mm 5 mps 724 mmHg 78%
    20:00 -5°C° 0.1 mm 5 mps 724 mmHg 79%
    21:00 -5°C° 0.1 mm 5 mps 723 mmHg 80%
    22:00 -6°C° 0.1 mm 5 mps 723 mmHg 80%
    23:00 -5°C° 0.2 mm 4 mps 723 mmHg 82%

    23 February, Friday

    Time Temperature Precipitation Wind Pressure Humidity
    00:00 -5°C° 0.2 mm 4 mps 722 mmHg 83%
    01:00 -5°C° 0.2 mm 4 mps 722 mmHg 85%
    02:00 -5°C° 0.3 mm 4 mps 722 mmHg 86%
    03:00 -5°C° 0.3 mm 4 mps 722 mmHg 87%
    04:00 -5°C° 0.3 mm 4 mps 721 mmHg 88%
    05:00 -5°C° 0.3 mm 4 mps 721 mmHg 89%
    06:00 -5°C° 0.3 mm 4 mps 721 mmHg 89%
    07:00 -5°C° 0.3 mm 4 mps 721 mmHg 89%
    08:00 -5°C° 0.3 mm 4 mps 721 mmHg 88%
    09:00 -5°C° 0.3 mm 4 mps 721 mmHg 86%
    10:00 -5°C° 0.3 mm 4 mps 721 mmHg 85%
    11:00 -6°C° 0.2 mm 5 mps 721 mmHg 82%
    12:00 -6°C° 0.2 mm 5 mps 721 mmHg 79%
    13:00 -6°C° 0.2 mm 5 mps 721 mmHg 76%
    14:00 -6°C° 0.2 mm 5 mps 721 mmHg 74%
    15:00 -7°C° 0.2 mm 5 mps 721 mmHg 73%
    16:00 -7°C° 0.2 mm 5 mps 721 mmHg 71%
    17:00 -7°C° 0.1 mm 4 mps 721 mmHg 70%
    18:00 -8°C° 0.1 mm 4 mps 721 mmHg 69%
    19:00 -8°C° 0.1 mm 4 mps 721 mmHg 68%
    20:00 -8°C° 0 mm 3 mps 721 mmHg 70%
    21:00 -8°C° 0 mm 3 mps 721 mmHg 71%
    22:00 -8°C° 0 mm 3 mps 720 mmHg 73%
    23:00 -8°C° 0.1 mm 3 mps 720 mmHg 76%
    Show more